Theta_e
312 313 319 319 319 318 316 318 319 320 321 321 321 322 322 323 323 324 325 324 324 325 325 324 322 322 324 324 325 324 322 316 321 325 326 324 323 326 327 327 325 325 325 326
312 313 316 320 320 319 319 318 319 320 321 321 320 321 321 322 322 325 327 327 324 324 326 325 322 323 324 324 325 324 321 316 324 325 323 323 323 326 327 326 326 325 324 324
311 314 315 319 318 321 321 319 319 319 321 320 320 321 321 322 324 326 327 328 328 328 326 326 323 324 324 325 325 324 319 319 324 327 327 326 325 328 328 326 326 325 324 322
310 312 314 316 317 316 317 317 318 319 320 322 321 323 322 322 323 323 325 326 327 325 325 325 324 324 325 325 325 323 319 322 324 326 327 326 327 328 326 325 324 325 325 324
311 312 313 314 314 315 317 318 319 319 320 321 323 322 321 321 323 322 320 324 325 325 325 325 325 325 325 325 325 323 321 322 325 327 327 326 325 325 324 326 326 325 324 324
311 314 313 314 316 316 317 317 318 318 319 322 322 322 322 322 323 322 323 323 324 324 325 325 325 325 326 326 325 323 321 323 327 326 327 324 324 325 326 326 327 327 326 325
313 312 314 314 314 314 315 313 316 319 321 324 322 322 324 322 322 322 322 323 324 325 325 325 325 326 326 326 325 323 321 324 326 327 326 324 324 325 324 326 327 326 325 326
315 314 313 314 314 314 314 315 319 322 323 324 322 324 324 322 322 324 324 325 325 325 325 325 325 326 326 327 325 323 323 326 325 327 325 324 324 324 325 325 327 326 326 326
315 315 316 315 315 314 314 317 317 319 321 322 322 322 323 323 325 324 324 325 325 325 325 325 326 326 327 326 324 322 326 327 327 327 325 327 327 327 326 325 326 327 327 326
315 314 316 316 315 314 313 314 317 315 321 325 323 324 325 324 326 325 325 324 325 325 325 326 326 326 327 326 324 323 327 327 327 327 325 327 328 326 325 324 325 325 326 326
314 314 317 316 315 315 313 314 313 315 317 321 322 323 321 322 325 325 323 325 326 326 326 326 326 327 327 326 323 323 327 327 327 326 326 327 328 325 326 325 326 325 326 326
314 312 315 315 315 316 316 315 314 317 318 318 320 322 321 320 323 324 324 325 326 327 327 326 326 327 327 325 323 323 326 326 325 326 326 327 328 325 327 326 325 326 326 326
313 315 315 314 318 315 315 315 315 314 317 320 322 322 319 319 319 325 324 326 327 326 327 326 327 327 327 325 323 323 324 325 325 324 325 326 328 326 327 327 326 326 327 327
309 313 317 316 317 317 315 315 314 315 315 318 322 322 324 323 324 325 326 326 327 327 327 327 327 327 326 324 323 323 324 324 324 323 325 325 328 327 325 326 327 327 327 327
308 311 316 318 316 316 319 316 316 317 317 318 319 321 321 322 323 325 327 326 326 326 326 327 327 327 326 324 323 324 324 324 324 321 324 324 326 326 325 327 326 325 325 325
307 309 314 320 318 316 316 318 316 316 317 319 321 321 320 321 325 326 327 325 325 326 327 327 327 327 326 324 323 323 324 324 324 321 322 322 326 327 327 327 327 326 325 325
309 310 310 318 319 316 316 316 317 317 319 320 322 322 319 321 325 325 326 326 326 327 327 327 327 327 326 325 323 323 324 323 324 321 321 320 326 328 329 328 326 323 323 322
309 309 310 313 316 317 317 316 317 317 319 320 321 319 321 321 326 327 329 329 327 326 327 327 327 326 326 325 323 322 324 324 324 321 320 319 323 327 327 329 325 323 323 319
308 308 310 317 316 317 318 319 317 316 318 320 322 319 321 323 322 324 328 329 330 328 327 327 327 326 326 326 324 322 324 324 324 321 319 319 318 327 326 327 327 324 324 317
313 308 310 318 317 318 319 319 319 320 320 319 321 318 320 321 323 321 327 328 329 329 328 328 327 327 326 326 324 322 324 324 324 323 320 319 318 324 327 325 325 324 324 319
312 310 312 314 318 321 318 318 320 321 321 319 320 320 318 323 325 326 327 328 329 329 329 328 328 327 327 326 325 322 323 323 323 324 321 318 319 318 325 328 326 325 325 323
312 317 315 316 320 323 316 317 320 316 316 322 320 322 321 325 325 326 327 327 327 329 328 328 328 327 327 326 326 323 323 322 322 324 322 319 320 316 319 322 327 327 326 325
314 313 315 316 321 315 315 314 314 314 314 316 324 325 323 324 324 325 326 327 327 327 328 329 329 328 327 327 326 325 323 323 323 323 323 319 320 318 317 319 326 326 325 325
311 312 315 315 319 315 314 313 313 313 314 314 322 325 322 324 326 325 326 327 327 327 328 329 328 328 327 327 327 326 325 323 323 323 323 319 321 320 318 318 318 320 322 322
309 312 313 313 316 313 314 313 313 313 313 315 324 326 324 323 325 326 325 326 326 326 328 329 329 329 329 328 327 326 325 323 323 322 323 319 321 321 319 318 318 317 317 316
310 311 313 315 312 313 313 312 312 313 312 314 322 326 326 323 323 325 326 326 326 327 328 328 329 329 329 328 327 327 326 324 323 322 323 321 320 321 321 320 319 318 318 316
Wind_Speed
17 8 19 26 21 13 10 6 10 17 2 8 7 11 11 18 18 20 28 28 33 34 22 20 32 34 36 30 23 16 9 7 5 2 3 7 10 10 9 11 11 14 13 9
6 30 21 16 15 15 10 11 16 19 6 6 8 14 14 13 11 21 28 29 27 27 21 20 28 37 38 29 20 13 8 6 4 2 5 8 12 10 10 8 10 13 7 4
29 21 17 20 16 16 18 18 16 20 3 7 7 13 13 17 7 22 30 29 22 29 26 23 33 40 34 26 18 10 7 5 4 2 5 10 12 11 10 6 10 6 1 4
19 19 23 17 24 16 19 14 17 18 4 8 4 5 5 9 12 7 16 17 25 22 21 25 38 38 31 21 13 8 7 4 3 2 5 11 13 10 5 6 6 5 2 4
12 18 22 19 19 21 17 12 9 13 8 5 8 3 7 4 8 10 9 17 11 15 22 31 40 35 26 18 12 8 6 4 4 1 7 12 10 4 5 5 5 4 3 4
9 15 23 21 17 20 8 2 2 11 3 10 18 7 5 7 9 7 5 8 12 19 25 31 35 28 23 16 12 9 6 5 4 1 7 9 5 5 8 7 5 5 3 5
5 13 5 10 15 7 13 6 4 3 5 6 8 5 14 7 9 9 9 10 18 22 27 33 34 30 24 19 15 10 7 6 4 1 6 4 5 7 9 7 6 3 1 4
14 11 22 14 14 13 14 14 6 5 3 5 7 7 7 10 11 19 14 16 22 26 28 34 35 29 23 18 16 10 9 6 4 1 4 3 5 6 8 9 6 2 3 3
13 16 2 19 5 16 16 15 13 2 3 2 4 6 8 1 3 3 12 22 26 29 32 35 33 28 22 18 16 10 10 6 4 1 2 3 5 6 8 8 6 4 4 4
2 4 8 18 20 17 9 10 7 5 6 5 4 3 6 5 7 5 7 14 25 28 30 33 32 28 21 17 15 11 9 6 4 2 2 3 4 6 8 6 7 5 4 5
4 2 3 9 15 19 8 11 5 7 5 5 1 6 7 9 9 12 10 22 29 31 32 34 33 27 20 19 17 13 13 11 7 3 2 2 4 6 8 5 5 8 8 6
6 5 5 11 5 19 19 17 9 11 9 5 3 7 5 11 14 14 17 24 29 31 32 34 32 28 24 23 20 15 15 13 6 3 3 2 4 6 8 6 5 7 8 8
8 5 7 6 2 3 23 21 22 3 3 7 11 10 3 4 8 16 17 26 29 29 31 33 32 30 27 25 22 17 15 12 8 5 5 4 4 6 11 12 8 8 8 8
7 5 13 14 3 5 13 22 9 16 9 8 11 3 4 6 9 7 12 27 32 33 34 35 33 31 28 27 24 18 16 14 11 7 5 5 5 6 8 13 12 11 9 8
4 4 5 18 20 9 4 12 22 18 14 16 14 9 9 12 12 13 26 27 29 31 35 37 34 33 30 29 26 20 15 17 15 9 7 6 7 8 8 8 9 9 11 11
5 4 7 6 18 24 18 5 20 22 14 12 7 8 9 12 14 15 26 29 29 35 38 37 35 35 33 31 27 23 18 18 18 12 9 8 9 12 10 8 8 8 9 10
5 3 9 6 14 8 15 26 12 12 18 18 15 11 7 4 12 17 23 31 35 39 39 38 38 36 35 32 28 26 22 18 19 16 12 8 14 14 11 9 9 9 9 8
9 1 2 5 2 11 18 12 18 11 8 14 3 11 15 14 28 37 43 46 39 39 40 38 37 36 35 32 28 26 25 20 20 19 16 12 16 15 13 11 10 8 7 8
17 5 3 3 4 5 7 4 12 9 12 11 17 9 11 24 18 9 37 44 45 43 39 36 35 33 34 33 30 29 28 24 22 22 19 16 14 18 15 13 11 8 6 8
11 11 6 2 4 8 5 14 2 5 13 9 14 10 10 15 11 7 38 42 44 43 39 36 35 36 35 35 32 32 31 28 25 24 20 18 14 20 18 14 12 9 7 6
3 4 9 5 4 4 18 20 13 13 2 19 20 18 13 13 16 36 36 44 45 42 42 39 36 36 37 36 35 35 33 31 24 22 21 19 15 20 20 18 15 13 10 7
2 4 3 4 5 3 22 8 7 11 28 25 24 27 28 37 31 32 31 40 44 45 42 40 37 37 37 37 37 37 35 28 26 25 22 21 19 20 22 21 19 16 13 10
3 2 2 3 3 2 19 9 20 24 23 26 27 20 35 42 31 32 33 38 43 45 44 42 40 38 37 39 39 39 35 32 28 28 25 23 22 19 22 22 23 20 17 15
3 5 3 6 2 10 22 18 29 29 28 30 25 18 20 32 34 31 31 40 42 42 43 45 43 40 38 39 40 37 35 33 30 30 27 24 25 24 22 22 22 22 21 19
3 3 0 6 9 19 5 32 35 38 39 40 31 24 5 25 33 34 34 39 40 39 41 45 46 42 37 37 40 40 38 35 34 31 29 26 27 28 25 22 21 21 22 20
2 2 1 2 15 11 17 31 36 36 43 43 33 31 18 9 25 34 35 36 38 38 40 45 48 42 39 37 40 40 40 37 35 35 32 30 28 30 29 26 24 23 18 18
Wind_Direction
176 196 206 207 206 225 236 222 246 260 193 233 245 263 272 278 294 269 274 270 261 246 258 252 232 216 201 197 195 201 217 230 228 266 299 323 332 324 312 309 317 325 314 262
167 226 207 204 208 217 241 247 253 283 272 245 271 269 276 278 266 260 269 272 263 259 261 228 213 197 195 187 191 202 216 219 204 267 324 338 339 330 319 306 311 324 323 210
203 225 200 203 206 203 222 230 246 250 333 265 285 283 284 283 266 271 260 256 258 262 240 210 194 188 181 188 190 203 209 201 198 270 338 345 339 326 321 309 315 337 327 172
230 224 196 198 212 197 224 215 242 259 276 264 129 284 295 285 303 287 258 242 247 251 221 199 186 180 185 181 185 190 194 192 194 286 340 343 338 329 345 329 344 4 230 202
210 184 212 211 205 200 230 224 226 247 234 258 248 270 264 233 284 281 265 247 239 220 200 189 182 182 176 181 184 177 180 187 203 293 347 343 344 359 1 344 340 330 281 199
214 202 201 213 202 208 206 248 261 252 239 254 263 187 226 235 224 258 246 246 197 185 183 185 180 175 173 176 176 172 175 180 195 334 346 354 28 27 5 343 339 315 274 215
163 222 223 176 206 173 202 130 254 276 219 229 237 189 245 247 233 224 260 198 179 182 180 182 179 177 177 177 178 174 174 183 179 52 350 21 13 21 8 6 352 348 157 174
203 210 211 179 197 193 212 182 172 200 209 193 183 230 247 214 232 240 257 207 178 182 183 182 181 179 181 180 180 175 169 162 156 94 358 22 6 14 5 6 11 25 95 133
200 229 180 188 150 173 201 206 181 30 291 132 220 280 323 32 261 158 149 165 179 185 182 182 181 183 184 183 182 179 169 163 156 153 35 360 349 8 8 15 37 71 108 122
276 193 218 202 197 202 173 161 174 200 204 219 267 219 220 212 223 165 155 175 180 183 183 183 184 184 185 183 182 178 177 173 154 158 99 33 30 19 26 36 50 74 107 108
200 145 263 196 203 182 176 179 177 156 199 174 207 254 209 206 184 187 197 190 180 186 186 185 185 184 184 184 185 183 186 190 182 171 138 68 43 40 38 62 78 80 94 102
284 209 207 235 250 193 204 199 188 194 194 240 163 260 238 198 195 185 192 190 190 193 187 186 185 184 187 188 188 188 186 188 184 173 171 135 73 64 41 73 102 91 96 102
330 275 251 339 211 183 199 198 215 149 102 190 204 252 191 213 197 203 171 185 193 192 188 187 187 187 191 192 191 190 187 183 188 176 171 159 108 82 69 73 96 105 105 113
334 280 234 218 238 139 196 204 173 194 217 211 226 186 177 183 159 160 178 186 192 193 191 188 189 190 193 195 194 189 189 187 190 171 165 164 142 130 98 84 89 98 97 103
33 276 307 266 252 275 189 189 201 204 198 202 228 201 212 190 172 190 191 185 186 191 193 192 191 195 195 197 195 190 188 186 193 177 173 167 164 149 135 107 93 94 85 89
347 283 323 259 243 241 250 248 202 215 209 227 194 223 205 204 189 152 179 185 183 192 196 195 197 199 198 197 195 192 188 186 194 189 177 166 169 155 145 135 118 104 90 73
295 336 351 278 230 239 252 239 225 208 206 199 208 222 152 152 169 176 179 190 189 196 198 199 200 202 201 198 195 193 188 182 192 193 183 170 172 161 154 151 127 109 95 78
254 85 238 276 203 206 247 222 223 212 215 215 159 177 178 178 188 191 197 195 198 200 201 204 202 204 205 200 197 192 190 187 192 194 190 181 181 176 171 168 151 128 98 96
221 181 265 251 249 275 235 234 195 176 245 212 212 206 189 187 162 200 203 206 202 206 206 205 207 203 206 202 199 194 193 194 194 196 194 188 186 185 180 175 166 149 122 112
252 188 195 276 237 212 32 331 342 119 239 208 210 190 179 141 179 219 208 209 207 211 209 207 210 207 207 205 201 198 196 197 197 198 194 191 189 190 183 185 181 169 147 130
90 127 225 262 287 296 345 325 304 183 258 320 211 187 171 180 187 202 209 210 210 214 212 209 213 209 208 205 202 201 201 202 198 195 195 188 192 192 192 193 193 184 177 163
351 313 183 200 240 252 348 17 49 313 321 308 294 203 185 193 194 202 199 206 208 213 210 211 211 214 210 206 204 204 207 203 198 196 194 189 191 190 192 197 196 197 197 189
208 197 323 271 267 44 345 342 333 328 326 324 319 300 213 202 200 204 200 202 204 210 212 211 210 214 213 208 207 206 209 203 199 197 195 191 194 189 190 194 197 198 204 206
219 223 238 310 39 333 313 335 343 344 336 333 335 324 239 218 210 200 197 201 202 208 211 209 209 213 214 210 210 213 209 204 199 198 196 193 196 197 193 195 201 204 205 208
215 229 209 281 285 309 225 328 331 334 341 355 12 18 267 225 217 213 204 200 203 205 209 208 209 208 213 213 210 212 212 206 201 200 198 194 197 204 203 204 203 208 216 217
171 256 283 326 311 293 284 312 320 333 343 351 3 20 38 194 216 201 193 194 196 201 205 207 207 206 209 213 211 214 213 208 204 202 201 200 199 207 210 211 211 215 217 220